Weather Service Report


945 
ASUS42 KRAH 270710
RWRRAH
NORTH CAROLINA WEATHER ROUNDUP
NATIONAL WEATHER SERVICE RALEIGH NC
300 AM EDT MON APR 27 2015

NOTE: "FAIR" INDICATES FEW OR NO CLOUDS BELOW 12,000 FEET WITH NO
SIGNIFICANT WEATHER AND/OR OBSTRUCTIONS TO VISIBILITY.

NCZ001-053-055-056-065-067-270800-
WESTERN NORTH CAROLINA
  
CITY           SKY/WX    TMP DP  RH WIND       PRES   REMARKS
ASHEVILLE      CLEAR     50  41  71 N8        29.81F                  
JEFFERSON      CLOUDY    46  33  61 W12G18    29.79F                  
MORGANTON      CLOUDY    49  49  99 CALM      29.83S                  
HICKORY        CLOUDY    50  47  89 CALM      29.78S                  
RUTHERFORDTON  CLEAR     49  49 100 NW5       29.80F                  
MOUNT AIRY       N/A     46  42  88 CALM      29.79S                  
BOONE          CLOUDY    45  34  65 NW6       29.80F                  
$$
 
NCZ021-022-025-041-071-084-088-270800-
CENTRAL NORTH CAROLINA
  
CITY           SKY/WX    TMP DP  RH WIND       PRES   REMARKS
CHARLOTTE      CLEAR     48  45  89 CALM      29.78F                  
GREENSBORO     PTCLDY    43  42  97 SW5       29.77F                  
WINSTON-SALEM  CLEAR     47  44  90 CALM      29.78F                  
RALEIGH-DURHAM PTCLDY    42  40  92 CALM      29.77F                  
FORT BRAGG     CLOUDY    50  47  90 NW5       29.76F                  
FAYETTEVILLE   PTCLDY    50  48  93 CALM      29.76F                  
BURLINGTON     CLEAR     43  41  93 CALM      29.77F                  
LAURINBURG     CLOUDY    50  48  93 N5        29.78S                  
$$
 
NCZ011-015-027-028-043-044-047-080-103-270800-
NORTHEASTERN NORTH CAROLINA
  
CITY           SKY/WX    TMP DP  RH WIND       PRES   REMARKS
ROCKY MT-WILSO PTCLDY    45  43  93 NW3       29.76F                  
GREENVILLE     CLEAR     45  45 100 CALM      29.78F                  
WASHINGTON       N/A     44  44  98 CALM      29.75F                  
ELIZABETH CITY CLEAR     41  40  96 CALM      29.73F FOG              
MANTEO         PTCLDY    43  39  85 CALM      29.73F                  
CAPE HATTERAS  CLOUDY    52  41  66 VRB6      29.70F                  
$$
 
NCZ078-087-090-091-093-098-101-270800-
SOUTHEASTERN NORTH CAROLINA
  
CITY           SKY/WX    TMP DP  RH WIND       PRES   REMARKS
LUMBERTON      CLOUDY    52  49  89 N5        29.77F                  
GOLDSBORO      CLEAR     47  46  99 CALM      29.74F                  
KINSTON        CLEAR     47  46  97 CALM      29.76F                  
KENANSVILLE    CLOUDY    49  48  95 CALM      29.77S                  
NEW BERN       CLOUDY    51  47  86 NW7       29.77R                  
CHERRY POINT   CLOUDY    51  47  86 NW7       29.75F                  
BEAUFORT       MOCLDY    52  48  86 NW12      29.73R                  
JACKSONVILLE   CLOUDY    50  48  93 W6        29.75F                  
WILMINGTON     CLOUDY    51  49  92 N7        29.74F                  
$$


Return to Home page


Western Regional Climate Center, wrcc@dri.edu